TimeAKST,TemperatureF,Dew PointF,Humidity,Sea Level PressureIn,VisibilityMPH,Wind Direction,Wind SpeedMPH,Gust SpeedMPH,PrecipitationIn,Events,Conditions,WindDirDegrees,DateUTC
12:53 AM,-2.9,-9.0,75,30.66,10.0,Calm,Calm,-,N/A,,Partly Cloudy,0,2014-02-04 09:53:00
1:53 AM,-0.9,-8.0,72,30.67,10.0,NNE,4.6,-,N/A,,Partly Cloudy,30,2014-02-04 10:53:00
3:53 AM,-2.0,-8.0,76,30.67,10.0,Calm,Calm,-,N/A,,Partly Cloudy,0,2014-02-04 12:53:00
4:53 AM,-5.1,-9.9,80,30.67,10.0,Calm,Calm,-,N/A,,Partly Cloudy,0,2014-02-04 13:53:00
5:53 AM,-6.0,-13.0,72,30.68,10.0,Calm,Calm,-,N/A,,Partly Cloudy,0,2014-02-04 14:53:00
6:53 AM,-7.1,-13.0,75,30.69,10.0,North,3.5,-,N/A,,Partly Cloudy,10,2014-02-04 15:53:00
7:53 AM,-6.0,-11.9,75,30.69,10.0,Calm,Calm,-,N/A,,Partly Cloudy,0,2014-02-04 16:53:00
8:53 AM,-9.0,-15.0,75,30.69,10.0,Calm,Calm,-,N/A,,Partly Cloudy,0,2014-02-04 17:53:00
9:53 AM,-7.1,-13.0,75,30.70,10.0,Calm,Calm,-,N/A,,Partly Cloudy,0,2014-02-04 18:53:00
10:53 AM,-4.0,-9.9,76,30.71,10.0,Calm,Calm,-,N/A,,Partly Cloudy,0,2014-02-04 19:53:00
11:53 AM,-0.9,-7.1,75,30.70,10.0,Calm,Calm,-,N/A,,Partly Cloudy,0,2014-02-04 20:53:00
12:53 PM,3.9,-2.9,73,30.69,10.0,NE,3.5,-,N/A,,Partly Cloudy,50,2014-02-04 21:53:00
1:53 PM,9.0,1.9,73,30.69,10.0,NNE,3.5,-,N/A,,Partly Cloudy,20,2014-02-04 22:53:00
2:53 PM,9.0,1.9,73,30.69,10.0,Calm,Calm,-,N/A,,Partly Cloudy,0,2014-02-04 23:53:00
3:53 PM,10.0,3.0,73,30.70,10.0,Calm,Calm,-,N/A,,Partly Cloudy,0,2014-02-05 00:53:00
4:53 PM,3.9,-0.9,80,30.71,10.0,Calm,Calm,-,N/A,,Partly Cloudy,0,2014-02-05 01:53:00
5:53 PM,-0.0,-4.0,83,30.72,10.0,Calm,Calm,-,N/A,,Partly Cloudy,0,2014-02-05 02:53:00
6:53 PM,-0.9,-8.0,72,30.74,10.0,Calm,Calm,-,N/A,,Partly Cloudy,0,2014-02-05 03:53:00
7:53 PM,-4.0,-8.0,83,30.75,10.0,Calm,Calm,-,N/A,,Clear,0,2014-02-05 04:53:00
8:53 PM,-5.1,-11.0,76,30.76,10.0,Calm,Calm,-,N/A,,Clear,0,2014-02-05 05:53:00
9:53 PM,-6.0,-13.0,72,30.77,10.0,Calm,Calm,-,N/A,,Clear,0,2014-02-05 06:53:00
10:53 PM,-6.0,-11.9,75,30.77,10.0,Calm,Calm,-,N/A,,Clear,0,2014-02-05 07:53:00
11:53 PM,-6.0,-13.0,72,30.77,10.0,Calm,Calm,-,N/A,,Clear,0,2014-02-05 08:53:00